Wind_Speed
36 35 35 35 34 34 35 36 38 37 37 34 33 34 34 35 36 37 37 38 38 39 38 39 40 41 42 42 43 44 45 45 46 48 48 48 48 49 51 52 53 53 54 54
36 35 35 36 35 35 35 36 36 36 34 32 32 33 34 34 35 35 36 38 38 39 39 40 40 41 41 42 42 43 44 45 46 47 48 49 48 49 50 50 51 52 53 54
37 36 36 36 34 34 34 34 34 35 33 32 32 33 33 34 34 35 36 37 38 39 40 40 41 41 41 42 42 43 44 44 45 46 47 48 48 48 49 49 50 51 51 52
38 38 38 36 34 34 34 34 34 34 33 33 33 34 34 34 35 35 35 36 36 37 38 39 40 40 41 41 42 42 43 43 44 46 47 47 47 47 48 48 49 49 50 51
38 39 39 35 34 35 35 34 33 34 34 34 34 35 35 35 34 34 35 35 36 37 38 38 39 40 41 41 42 42 43 43 43 44 45 46 46 46 47 48 49 49 49 50
38 39 39 36 34 34 35 34 33 34 34 35 36 36 35 35 36 36 35 36 36 37 37 38 38 39 40 40 41 42 43 43 43 43 43 44 45 45 46 46 47 48 49 50
37 38 38 36 35 35 35 35 35 35 35 36 36 36 36 36 36 37 37 36 36 37 37 37 37 38 39 40 40 41 41 42 42 43 43 43 44 44 45 46 46 47 48 49
36 37 37 36 36 36 36 36 36 36 36 36 36 36 36 36 36 36 36 36 36 36 36 36 36 36 37 38 39 39 39 40 40 41 42 43 43 44 44 45 46 46 47 48
37 37 36 36 36 36 36 37 37 37 37 36 36 36 35 35 35 34 34 35 36 36 36 35 36 36 36 36 36 37 37 38 38 39 41 42 42 42 43 45 46 46 46 46
37 36 35 35 35 35 36 36 36 36 35 35 34 34 34 34 34 33 33 34 35 35 35 35 35 35 35 36 36 35 35 36 36 38 39 40 42 42 43 43 45 45 44 44
34 33 33 33 34 34 34 34 34 34 33 33 32 32 32 32 32 33 32 33 33 33 33 33 34 34 35 35 35 34 34 34 35 35 37 39 40 41 42 43 44 44 44 44
33 33 33 33 33 33 33 32 32 32 32 32 32 31 31 31 31 31 31 31 32 33 33 33 33 33 33 34 33 33 33 33 33 34 35 37 38 40 41 43 44 44 44 44
33 33 33 33 32 32 31 31 31 31 31 30 31 31 31 30 30 30 31 31 31 31 31 31 31 31 32 32 32 31 32 32 33 33 33 35 36 38 39 40 42 43 44 44
33 33 33 32 32 31 31 31 31 31 30 30 30 30 30 29 29 30 30 30 30 30 29 30 30 30 30 30 30 31 31 32 33 33 33 33 34 35 36 37 39 40 42 42
33 33 32 32 32 32 31 31 31 30 30 30 30 30 30 30 30 30 30 29 29 28 28 29 29 29 29 30 30 30 31 31 32 32 33 32 32 33 33 34 36 37 38 40
32 32 32 32 31 31 30 30 30 30 30 29 29 30 30 30 30 29 29 29 28 27 27 27 27 27 28 29 29 30 30 30 30 30 31 31 32 32 32 32 33 34 36 37
31 31 31 31 30 30 30 30 30 29 29 29 29 29 29 29 28 28 28 27 27 27 27 27 27 27 27 28 28 29 29 29 29 29 29 30 30 30 30 31 32 33 34 35
30 30 30 30 30 30 30 30 29 29 29 29 29 29 29 28 28 27 27 27 27 27 28 28 28 28 28 28 28 28 28 28 28 28 28 28 28 28 29 30 30 31 32 33
30 30 29 29 30 30 30 30 30 30 30 30 29 29 28 28 27 27 27 28 28 28 29 29 29 29 29 28 28 28 28 27 27 27 27 28 28 29 29 29 30 30 31 31
30 30 30 30 30 30 30 31 31 30 30 29 29 28 28 28 28 27 27 28 29 29 29 29 29 29 29 28 28 28 27 27 27 27 28 28 28 28 29 29 29 29 30 31
29 29 29 29 29 29 30 30 30 30 29 29 29 28 28 28 28 28 28 28 28 28 28 28 28 28 28 28 28 28 28 28 28 29 29 29 29 29 29 29 30 30 30 30
28 28 28 28 28 29 29 29 28 28 28 28 28 28 28 28 28 28 28 28 28 28 28 28 28 28 28 29 29 29 29 29 29 30 30 30 30 30 30 30 30 30 30 31
28 28 27 27 27 28 28 28 28 28 28 28 28 28 28 28 28 27 27 27 27 27 27 27 27 28 29 29 29 29 29 29 30 30 30 30 30 30 30 30 30 30 30 31
27 27 27 27 27 28 28 28 27 27 27 27 27 28 28 27 27 27 27 26 26 26 26 27 27 27 28 28 28 28 28 29 28 28 28 29 29 30 30 30 30 30 30 30
26 26 26 27 27 27 27 27 26 26 27 27 27 27 27 27 26 26 26 26 26 26 26 26 26 26 27 27 28 28 28 28 28 28 28 28 29 29 29 29 29 30 30 30
25 26 26 27 26 26 26 26 26 26 26 27 27 27 26 26 26 26 26 26 26 26 26 26 26 26 27 27 27 27 28 28 28 28 28 28 28 28 28 28 29 29 29 29
25 25 26 26 25 25 25 25 26 26 26 26 26 26 25 25 25 25 25 25 25 25 25 25 26 26 26 27 27 27 27 26 26 26 26 27 27 27 27 28 28 29 29 29
Wind_Direction
294 293 293 292 290 288 287 287 288 289 287 286 282 278 276 274 273 272 270 269 268 268 268 267 265 264 263 262 260 259 258 258 257 255 254 254 253 252 252 251 250 249 248 247
294 293 291 290 290 290 288 288 289 288 286 286 282 280 277 276 274 274 272 270 270 269 268 268 266 265 264 263 262 261 259 258 258 257 255 254 254 253 252 251 250 249 249 248
295 294 291 291 293 291 290 289 288 286 286 284 281 279 278 277 276 276 274 272 271 270 269 269 268 267 264 263 263 262 261 260 259 258 257 256 254 253 252 251 250 249 250 249
294 293 291 295 293 293 291 290 289 287 285 284 283 281 281 279 278 277 276 275 274 272 271 270 269 267 266 264 263 263 262 261 260 259 259 258 255 254 253 251 251 251 250 249
294 294 294 295 295 295 294 292 290 289 287 285 284 283 283 281 279 278 278 277 276 275 273 271 270 268 267 265 264 264 263 262 261 261 259 258 255 254 253 253 253 252 251 250
294 295 296 298 297 296 295 293 292 291 289 287 286 285 284 282 281 280 279 278 278 277 275 273 271 269 268 267 266 265 264 262 261 261 259 257 255 254 253 254 255 254 253 251
294 294 296 300 299 297 296 296 294 292 290 288 287 287 286 285 283 281 280 279 277 277 276 275 273 270 269 269 269 267 265 263 262 260 258 256 255 254 254 255 255 254 253 251
293 293 297 298 298 297 295 294 293 291 290 289 288 287 287 286 285 282 279 278 277 277 276 275 275 273 271 271 271 270 267 264 262 259 257 256 256 256 255 255 254 253 253 251
291 293 295 295 296 296 294 293 292 291 290 290 289 288 287 286 285 283 280 278 278 278 276 276 275 275 274 272 272 271 268 266 263 260 259 256 256 257 257 255 254 254 253 253
291 293 294 294 296 295 294 293 292 291 290 290 290 289 288 287 286 284 282 280 279 278 277 276 276 276 275 273 272 272 270 269 266 262 260 258 257 257 258 257 256 255 254 254
292 293 292 293 295 295 294 294 292 291 291 291 291 290 289 288 287 286 285 283 281 280 279 278 277 276 275 274 273 272 271 270 268 265 262 260 259 258 258 259 258 257 256 256
292 292 293 294 295 295 294 294 294 293 292 292 292 292 291 289 288 288 288 286 284 282 280 278 277 276 276 275 274 272 271 270 269 266 264 262 260 260 260 260 258 257 256 256
291 291 292 293 295 295 294 294 294 294 293 292 292 292 292 291 290 290 290 289 287 284 281 279 278 278 277 276 274 272 270 270 269 268 266 264 263 262 261 261 260 258 257 256
289 290 290 292 293 294 294 294 294 294 293 293 293 294 293 293 292 292 291 290 288 286 283 281 279 278 278 277 275 273 272 271 271 269 267 266 265 264 263 261 260 259 258 256
288 289 290 291 292 292 293 293 294 294 294 294 294 294 294 293 293 292 291 290 289 287 284 282 281 279 278 277 276 275 274 273 272 270 268 266 265 265 265 263 260 259 258 257
289 289 290 291 292 293 293 294 295 295 295 295 295 295 295 294 293 292 291 290 289 287 286 284 283 281 280 278 277 277 276 275 274 271 268 266 266 266 266 265 262 259 257 257
289 289 290 291 291 292 293 294 295 295 295 295 295 295 295 295 294 292 291 290 288 287 286 285 284 283 282 281 280 278 277 276 275 272 270 268 267 266 265 265 263 261 258 257
290 290 290 291 291 291 292 293 294 294 295 295 295 295 296 296 295 294 291 290 288 287 286 285 285 285 285 284 281 280 278 277 275 273 271 270 269 267 267 266 265 263 261 260
291 291 290 290 290 291 292 293 293 294 295 295 295 294 295 294 294 294 293 291 288 287 287 287 286 286 285 284 283 281 279 277 275 273 272 271 271 270 269 268 267 265 263 262
293 292 291 290 291 292 294 294 294 294 294 294 294 294 294 294 293 293 294 294 291 289 287 287 286 285 285 284 283 281 278 277 275 274 274 273 273 272 271 269 268 266 264 262
294 293 292 291 292 294 295 294 294 293 294 294 295 294 294 294 293 293 293 294 293 290 289 287 286 286 285 284 283 281 279 277 276 275 274 274 273 273 273 271 269 266 264 263
295 294 293 293 293 295 296 295 294 294 294 294 295 295 295 295 294 294 294 293 293 291 290 288 287 285 284 284 283 282 280 279 278 276 275 274 273 273 272 271 270 267 265 263
295 295 295 294 295 295 296 296 296 295 295 295 295 295 295 295 295 295 295 294 294 293 291 289 288 287 286 284 283 282 282 281 279 277 276 274 273 273 272 271 269 267 265 263
295 295 296 296 296 296 296 297 297 297 296 296 296 296 296 296 296 297 296 296 295 295 293 291 290 290 289 287 285 284 283 282 281 279 277 275 274 272 271 270 269 267 266 264
295 296 296 296 296 296 297 298 299 299 298 298 298 298 297 297 297 298 298 297 297 297 296 295 294 292 291 290 289 288 287 285 282 280 278 276 275 273 271 270 269 267 266 265
295 296 296 296 296 296 297 298 299 301 301 300 300 299 298 298 298 298 298 298 299 299 298 298 297 296 295 293 292 291 289 286 283 280 278 276 275 273 272 271 270 268 267 265
298 298 298 297 296 296 297 298 299 300 301 301 300 300 299 299 299 299 299 299 299 299 300 300 300 299 298 296 295 294 291 287 283 281 279 277 276 274 273 271 270 269 268 266
Height
5544 5541 5537 5534 5532 5530 5526 5524 5521 5521 5519 5520 5516 5513 5512 5511 5510 5509 5509 5509 5509 5509 5509 5509 5509 5510 5510 5511 5512 5513 5514 5515 5517 5519 5521 5523 5525 5528 5530 5533 5536 5540 5543 5547
5535 5532 5528 5525 5524 5521 5518 5515 5513 5511 5510 5510 5506 5504 5502 5501 5500 5499 5499 5498 5498 5498 5498 5498 5498 5498 5498 5499 5499 5500 5501 5503 5504 5506 5508 5510 5512 5514 5516 5519 5522 5525 5529 5533
5525 5523 5519 5517 5517 5513 5510 5507 5505 5502 5502 5500 5497 5495 5493 5491 5490 5489 5488 5488 5487 5487 5486 5486 5486 5486 5486 5487 5487 5488 5489 5490 5491 5493 5494 5496 5498 5501 5503 5506 5509 5512 5515 5519
5516 5514 5509 5513 5508 5505 5501 5499 5496 5494 5492 5490 5488 5485 5483 5482 5480 5479 5478 5477 5476 5475 5475 5475 5474 5474 5474 5475 5475 5476 5476 5477 5478 5480 5481 5483 5485 5487 5490 5493 5496 5499 5502 5506
5507 5502 5500 5502 5499 5495 5492 5490 5488 5484 5482 5480 5478 5476 5475 5472 5470 5469 5468 5467 5465 5464 5464 5463 5463 5462 5463 5463 5463 5463 5464 5464 5465 5466 5467 5469 5472 5475 5477 5480 5483 5486 5489 5493
5498 5493 5491 5494 5490 5486 5483 5481 5480 5475 5472 5470 5467 5466 5466 5463 5460 5459 5457 5456 5455 5453 5452 5452 5451 5451 5451 5451 5451 5451 5451 5452 5452 5453 5454 5456 5459 5462 5464 5467 5469 5472 5476 5479
5490 5485 5483 5484 5480 5476 5474 5473 5469 5465 5462 5460 5457 5456 5454 5452 5450 5448 5446 5445 5443 5442 5441 5440 5440 5439 5439 5439 5438 5438 5438 5439 5440 5441 5442 5444 5446 5449 5451 5454 5457 5460 5463 5466
5482 5477 5478 5475 5470 5468 5465 5461 5458 5455 5452 5450 5447 5445 5443 5441 5439 5437 5435 5434 5432 5431 5430 5429 5428 5427 5427 5427 5426 5426 5426 5426 5427 5428 5430 5432 5434 5437 5439 5441 5444 5447 5449 5452
5474 5472 5469 5465 5461 5458 5454 5451 5448 5445 5442 5440 5437 5435 5433 5431 5429 5427 5425 5423 5422 5420 5419 5419 5417 5416 5416 5415 5415 5414 5414 5414 5415 5416 5417 5419 5421 5424 5426 5429 5432 5434 5437 5439
5463 5462 5459 5455 5451 5448 5445 5441 5438 5435 5432 5430 5427 5425 5423 5421 5418 5416 5415 5413 5411 5410 5409 5408 5406 5405 5404 5404 5404 5403 5403 5403 5403 5404 5406 5407 5410 5412 5414 5416 5419 5421 5424 5426
5454 5453 5449 5446 5442 5439 5435 5432 5429 5426 5423 5420 5418 5416 5413 5411 5408 5406 5405 5403 5401 5400 5399 5397 5396 5395 5394 5393 5393 5392 5392 5392 5392 5393 5394 5395 5397 5399 5401 5403 5405 5408 5411 5413
5446 5444 5440 5438 5434 5430 5427 5423 5420 5417 5415 5412 5409 5406 5404 5401 5399 5397 5395 5393 5392 5390 5388 5387 5386 5384 5383 5383 5382 5382 5382 5382 5382 5382 5383 5384 5385 5387 5388 5390 5393 5395 5397 5400
5437 5434 5431 5428 5425 5422 5418 5415 5412 5409 5406 5404 5401 5398 5395 5393 5390 5388 5386 5384 5382 5380 5378 5377 5376 5374 5373 5372 5372 5372 5372 5371 5371 5371 5372 5372 5373 5375 5376 5378 5380 5382 5384 5386
5427 5425 5422 5420 5417 5413 5410 5407 5404 5401 5398 5395 5392 5389 5386 5384 5382 5379 5377 5375 5373 5371 5369 5367 5366 5365 5364 5363 5362 5362 5362 5362 5361 5361 5361 5362 5363 5363 5365 5366 5368 5369 5371 5373
5418 5416 5413 5410 5407 5404 5401 5398 5396 5393 5389 5387 5384 5381 5378 5376 5373 5371 5368 5366 5364 5362 5360 5358 5357 5356 5354 5354 5353 5353 5352 5352 5351 5351 5351 5351 5352 5353 5353 5354 5356 5357 5359 5361
5409 5406 5403 5401 5398 5395 5393 5390 5387 5384 5381 5378 5375 5373 5370 5367 5364 5362 5359 5357 5355 5353 5352 5350 5348 5347 5345 5345 5344 5343 5343 5342 5341 5341 5341 5341 5342 5342 5343 5343 5344 5346 5347 5349
5400 5397 5395 5392 5389 5387 5384 5381 5378 5375 5373 5370 5367 5364 5361 5358 5356 5353 5351 5348 5347 5345 5343 5342 5340 5338 5337 5336 5335 5334 5333 5332 5331 5331 5331 5331 5331 5332 5332 5333 5334 5334 5336 5337
5390 5388 5385 5383 5380 5378 5375 5373 5370 5367 5364 5361 5359 5356 5353 5350 5347 5345 5343 5340 5338 5337 5335 5333 5332 5330 5328 5327 5326 5325 5324 5323 5322 5322 5322 5322 5322 5322 5322 5323 5323 5324 5325 5325
5381 5379 5376 5373 5371 5369 5366 5364 5361 5358 5356 5353 5350 5347 5345 5342 5339 5337 5334 5332 5330 5328 5326 5324 5323 5321 5320 5318 5317 5316 5315 5314 5313 5313 5313 5312 5312 5312 5312 5313 5313 5313 5314 5315
5372 5369 5367 5364 5362 5360 5357 5355 5352 5349 5347 5344 5341 5339 5336 5333 5331 5328 5326 5323 5321 5319 5317 5315 5314 5312 5311 5309 5307 5306 5305 5305 5304 5304 5303 5303 5302 5302 5302 5303 5303 5303 5304 5304
5363 5361 5358 5356 5353 5351 5348 5346 5343 5340 5338 5335 5333 5330 5328 5325 5322 5320 5317 5315 5312 5310 5308 5306 5305 5303 5301 5300 5298 5297 5296 5295 5294 5294 5293 5293 5293 5292 5292 5292 5292 5293 5293 5294
5355 5352 5350 5347 5345 5342 5340 5337 5334 5332 5329 5326 5324 5321 5319 5316 5314 5311 5309 5306 5304 5301 5299 5297 5295 5293 5292 5290 5288 5287 5286 5285 5284 5283 5283 5283 5282 5282 5282 5282 5282 5282 5283 5284
5347 5344 5342 5339 5337 5334 5331 5329 5326 5323 5321 5318 5316 5313 5311 5308 5305 5303 5300 5298 5295 5292 5290 5288 5286 5284 5282 5280 5278 5277 5276 5275 5274 5273 5272 5272 5272 5272 5272 5272 5272 5272 5273 5273
5339 5336 5334 5331 5328 5326 5323 5321 5318 5315 5313 5310 5308 5305 5302 5300 5297 5294 5292 5289 5286 5284 5281 5279 5276 5274 5272 5270 5268 5267 5265 5264 5263 5262 5262 5261 5261 5261 5261 5261 5262 5262 5262 5263
5331 5328 5326 5323 5321 5318 5316 5313 5310 5307 5305 5302 5299 5297 5294 5291 5289 5286 5284 5281 5278 5276 5273 5270 5267 5265 5263 5260 5258 5257 5255 5254 5253 5252 5252 5251 5251 5251 5251 5251 5251 5252 5252 5252
5323 5321 5318 5316 5313 5311 5308 5306 5303 5300 5297 5294 5292 5289 5286 5283 5281 5278 5276 5273 5270 5268 5265 5262 5260 5257 5254 5252 5249 5247 5246 5244 5243 5242 5242 5241 5241 5240 5240 5240 5241 5241 5241 5242
5316 5314 5311 5308 5306 5303 5301 5298 5296 5293 5290 5287 5284 5281 5278 5276 5273 5270 5268 5265 5263 5260 5257 5255 5252 5249 5246 5243 5241 5239 5237 5235 5234 5233 5232 5232 5231 5231 5230 5230 5230 5230 5231 5231